Index of /20260430/WXO-DD/model_gdps/15km/00/153
Name Last modified Size Description
Parent Directory -
20260430T00Z_MSC_GDPS_AirTemp_AGL-120m_LatLon0.15_PT153H.grib2 2026-04-30 04:36 901K
20260430T00Z_MSC_GDPS_AirTemp_AGL-2m_LatLon0.15_PT153H.grib2 2026-04-30 04:36 1.0M
20260430T00Z_MSC_GDPS_AirTemp_AGL-40m_LatLon0.15_PT153H.grib2 2026-04-30 04:36 801K
20260430T00Z_MSC_GDPS_AirTemp_AGL-80m_LatLon0.15_PT153H.grib2 2026-04-30 04:36 908K
20260430T00Z_MSC_GDPS_AirTemp_IsbL-0001_LatLon0.15_PT153H.grib2 2026-04-30 04:36 656K
20260430T00Z_MSC_GDPS_AirTemp_IsbL-0005_LatLon0.15_PT153H.grib2 2026-04-30 04:36 686K
20260430T00Z_MSC_GDPS_AirTemp_IsbL-0010_LatLon0.15_PT153H.grib2 2026-04-30 04:36 694K
20260430T00Z_MSC_GDPS_AirTemp_IsbL-0020_LatLon0.15_PT153H.grib2 2026-04-30 04:36 786K
20260430T00Z_MSC_GDPS_AirTemp_IsbL-0030_LatLon0.15_PT153H.grib2 2026-04-30 04:36 751K
20260430T00Z_MSC_GDPS_AirTemp_IsbL-0050_LatLon0.15_PT153H.grib2 2026-04-30 04:36 801K
20260430T00Z_MSC_GDPS_AirTemp_IsbL-0100_LatLon0.15_PT153H.grib2 2026-04-30 04:36 960K
20260430T00Z_MSC_GDPS_AirTemp_IsbL-0150_LatLon0.15_PT153H.grib2 2026-04-30 04:36 962K
20260430T00Z_MSC_GDPS_AirTemp_IsbL-0175_LatLon0.15_PT153H.grib2 2026-04-30 04:36 956K
20260430T00Z_MSC_GDPS_AirTemp_IsbL-0200_LatLon0.15_PT153H.grib2 2026-04-30 04:36 1.0M
20260430T00Z_MSC_GDPS_AirTemp_IsbL-0225_LatLon0.15_PT153H.grib2 2026-04-30 04:36 971K
20260430T00Z_MSC_GDPS_AirTemp_IsbL-0250_LatLon0.15_PT153H.grib2 2026-04-30 04:36 1.0M
20260430T00Z_MSC_GDPS_AirTemp_IsbL-0275_LatLon0.15_PT153H.grib2 2026-04-30 04:36 1.0M
20260430T00Z_MSC_GDPS_AirTemp_IsbL-0300_LatLon0.15_PT153H.grib2 2026-04-30 04:36 939K
20260430T00Z_MSC_GDPS_AirTemp_IsbL-0350_LatLon0.15_PT153H.grib2 2026-04-30 04:36 923K
20260430T00Z_MSC_GDPS_AirTemp_IsbL-0400_LatLon0.15_PT153H.grib2 2026-04-30 04:36 940K
20260430T00Z_MSC_GDPS_AirTemp_IsbL-0450_LatLon0.15_PT153H.grib2 2026-04-30 04:36 962K
20260430T00Z_MSC_GDPS_AirTemp_IsbL-0500_LatLon0.15_PT153H.grib2 2026-04-30 04:36 1.0M
20260430T00Z_MSC_GDPS_AirTemp_IsbL-0550_LatLon0.15_PT153H.grib2 2026-04-30 04:36 1.0M
20260430T00Z_MSC_GDPS_AirTemp_IsbL-0600_LatLon0.15_PT153H.grib2 2026-04-30 04:36 890K
20260430T00Z_MSC_GDPS_AirTemp_IsbL-0650_LatLon0.15_PT153H.grib2 2026-04-30 04:36 919K
20260430T00Z_MSC_GDPS_AirTemp_IsbL-0700_LatLon0.15_PT153H.grib2 2026-04-30 04:36 958K
20260430T00Z_MSC_GDPS_AirTemp_IsbL-0750_LatLon0.15_PT153H.grib2 2026-04-30 04:36 1.0M
20260430T00Z_MSC_GDPS_AirTemp_IsbL-0800_LatLon0.15_PT153H.grib2 2026-04-30 04:36 1.1M
20260430T00Z_MSC_GDPS_AirTemp_IsbL-0850_LatLon0.15_PT153H.grib2 2026-04-30 04:36 1.1M
20260430T00Z_MSC_GDPS_AirTemp_IsbL-0875_LatLon0.15_PT153H.grib2 2026-04-30 04:36 1.2M
20260430T00Z_MSC_GDPS_AirTemp_IsbL-0900_LatLon0.15_PT153H.grib2 2026-04-30 04:36 1.2M
20260430T00Z_MSC_GDPS_AirTemp_IsbL-0925_LatLon0.15_PT153H.grib2 2026-04-30 04:36 1.1M
20260430T00Z_MSC_GDPS_AirTemp_IsbL-0950_LatLon0.15_PT153H.grib2 2026-04-30 04:36 1.1M
20260430T00Z_MSC_GDPS_AirTemp_IsbL-0970_LatLon0.15_PT153H.grib2 2026-04-30 04:36 1.1M
20260430T00Z_MSC_GDPS_AirTemp_IsbL-0985_LatLon0.15_PT153H.grib2 2026-04-30 04:36 1.1M
20260430T00Z_MSC_GDPS_AirTemp_IsbL-1000_LatLon0.15_PT153H.grib2 2026-04-30 04:36 1.1M
20260430T00Z_MSC_GDPS_AirTemp_IsbL-1015_LatLon0.15_PT153H.grib2 2026-04-30 04:36 1.1M
20260430T00Z_MSC_GDPS_Albedo_Sfc_LatLon0.15_PT153H.grib2 2026-04-30 04:36 242K
20260430T00Z_MSC_GDPS_CAPE_Sfc_LatLon0.15_PT153H.grib2 2026-04-30 04:36 4.1M
20260430T00Z_MSC_GDPS_CIN_Sfc_LatLon0.15_PT153H.grib2 2026-04-30 04:36 2.9M
20260430T00Z_MSC_GDPS_ConvectivePrecip-Accum_Sfc_LatLon0.15_PT153H.grib2 2026-04-30 04:36 3.7M
20260430T00Z_MSC_GDPS_DewPointDepression_AGL-2m_LatLon0.15_PT153H.grib2 2026-04-30 04:36 761K
20260430T00Z_MSC_GDPS_DewPointDepression_IsbL-0010_LatLon0.15_PT153H.grib2 2026-04-30 04:36 73K
20260430T00Z_MSC_GDPS_DewPointDepression_IsbL-0020_LatLon0.15_PT153H.grib2 2026-04-30 04:36 69K
20260430T00Z_MSC_GDPS_DewPointDepression_IsbL-0030_LatLon0.15_PT153H.grib2 2026-04-30 04:36 89K
20260430T00Z_MSC_GDPS_DewPointDepression_IsbL-0050_LatLon0.15_PT153H.grib2 2026-04-30 04:36 378K
20260430T00Z_MSC_GDPS_DewPointDepression_IsbL-0100_LatLon0.15_PT153H.grib2 2026-04-30 04:36 393K
20260430T00Z_MSC_GDPS_DewPointDepression_IsbL-0150_LatLon0.15_PT153H.grib2 2026-04-30 04:36 485K
20260430T00Z_MSC_GDPS_DewPointDepression_IsbL-0175_LatLon0.15_PT153H.grib2 2026-04-30 04:36 591K
20260430T00Z_MSC_GDPS_DewPointDepression_IsbL-0200_LatLon0.15_PT153H.grib2 2026-04-30 04:36 686K
20260430T00Z_MSC_GDPS_DewPointDepression_IsbL-0225_LatLon0.15_PT153H.grib2 2026-04-30 04:36 762K
20260430T00Z_MSC_GDPS_DewPointDepression_IsbL-0250_LatLon0.15_PT153H.grib2 2026-04-30 04:36 855K
20260430T00Z_MSC_GDPS_DewPointDepression_IsbL-0275_LatLon0.15_PT153H.grib2 2026-04-30 04:36 875K
20260430T00Z_MSC_GDPS_DewPointDepression_IsbL-0300_LatLon0.15_PT153H.grib2 2026-04-30 04:36 921K
20260430T00Z_MSC_GDPS_DewPointDepression_IsbL-0350_LatLon0.15_PT153H.grib2 2026-04-30 04:36 955K
20260430T00Z_MSC_GDPS_DewPointDepression_IsbL-0400_LatLon0.15_PT153H.grib2 2026-04-30 04:36 1.0M
20260430T00Z_MSC_GDPS_DewPointDepression_IsbL-0450_LatLon0.15_PT153H.grib2 2026-04-30 04:36 1.0M
20260430T00Z_MSC_GDPS_DewPointDepression_IsbL-0500_LatLon0.15_PT153H.grib2 2026-04-30 04:36 1.0M
20260430T00Z_MSC_GDPS_DewPointDepression_IsbL-0550_LatLon0.15_PT153H.grib2 2026-04-30 04:36 1.0M
20260430T00Z_MSC_GDPS_DewPointDepression_IsbL-0600_LatLon0.15_PT153H.grib2 2026-04-30 04:36 1.0M
20260430T00Z_MSC_GDPS_DewPointDepression_IsbL-0650_LatLon0.15_PT153H.grib2 2026-04-30 04:36 1.1M
20260430T00Z_MSC_GDPS_DewPointDepression_IsbL-0700_LatLon0.15_PT153H.grib2 2026-04-30 04:36 1.1M
20260430T00Z_MSC_GDPS_DewPointDepression_IsbL-0750_LatLon0.15_PT153H.grib2 2026-04-30 04:36 1.1M
20260430T00Z_MSC_GDPS_DewPointDepression_IsbL-0800_LatLon0.15_PT153H.grib2 2026-04-30 04:36 1.1M
20260430T00Z_MSC_GDPS_DewPointDepression_IsbL-0850_LatLon0.15_PT153H.grib2 2026-04-30 04:36 1.2M
20260430T00Z_MSC_GDPS_DewPointDepression_IsbL-0875_LatLon0.15_PT153H.grib2 2026-04-30 04:36 1.1M
20260430T00Z_MSC_GDPS_DewPointDepression_IsbL-0900_LatLon0.15_PT153H.grib2 2026-04-30 04:36 1.1M
20260430T00Z_MSC_GDPS_DewPointDepression_IsbL-0925_LatLon0.15_PT153H.grib2 2026-04-30 04:36 1.0M
20260430T00Z_MSC_GDPS_DewPointDepression_IsbL-0950_LatLon0.15_PT153H.grib2 2026-04-30 04:36 1.0M
20260430T00Z_MSC_GDPS_DewPointDepression_IsbL-0970_LatLon0.15_PT153H.grib2 2026-04-30 04:36 1.0M
20260430T00Z_MSC_GDPS_DewPointDepression_IsbL-0985_LatLon0.15_PT153H.grib2 2026-04-30 04:36 1.0M
20260430T00Z_MSC_GDPS_DewPointDepression_IsbL-1000_LatLon0.15_PT153H.grib2 2026-04-30 04:36 963K
20260430T00Z_MSC_GDPS_DewPointDepression_IsbL-1015_LatLon0.15_PT153H.grib2 2026-04-30 04:36 909K
20260430T00Z_MSC_GDPS_DewPoint_AGL-2m_LatLon0.15_PT153H.grib2 2026-04-30 04:36 607K
20260430T00Z_MSC_GDPS_DownwardLongwaveRadiationFlux-Accum_Sfc_LatLon0.15_PT153H.grib2 2026-04-30 04:36 621K
20260430T00Z_MSC_GDPS_DownwardShortwaveRadiationFlux-Accum_Sfc_LatLon0.15_PT153H.grib2 2026-04-30 04:36 804K
20260430T00Z_MSC_GDPS_FreezingRain-Accum3h_Sfc_LatLon0.15_PT153H.grib2 2026-04-30 04:36 41K
20260430T00Z_MSC_GDPS_FreezingRain-Accum_Sfc_LatLon0.15_PT153H.grib2 2026-04-30 04:36 383K
20260430T00Z_MSC_GDPS_GeopotentialHeight_IsbL-0001_LatLon0.15_PT153H.grib2 2026-04-30 04:36 422K
20260430T00Z_MSC_GDPS_GeopotentialHeight_IsbL-0005_LatLon0.15_PT153H.grib2 2026-04-30 04:36 482K
20260430T00Z_MSC_GDPS_GeopotentialHeight_IsbL-0010_LatLon0.15_PT153H.grib2 2026-04-30 04:36 471K
20260430T00Z_MSC_GDPS_GeopotentialHeight_IsbL-0020_LatLon0.15_PT153H.grib2 2026-04-30 04:36 411K
20260430T00Z_MSC_GDPS_GeopotentialHeight_IsbL-0030_LatLon0.15_PT153H.grib2 2026-04-30 04:36 563K
20260430T00Z_MSC_GDPS_GeopotentialHeight_IsbL-0050_LatLon0.15_PT153H.grib2 2026-04-30 04:36 562K
20260430T00Z_MSC_GDPS_GeopotentialHeight_IsbL-0100_LatLon0.15_PT153H.grib2 2026-04-30 04:36 605K
20260430T00Z_MSC_GDPS_GeopotentialHeight_IsbL-0150_LatLon0.15_PT153H.grib2 2026-04-30 04:36 627K
20260430T00Z_MSC_GDPS_GeopotentialHeight_IsbL-0175_LatLon0.15_PT153H.grib2 2026-04-30 04:36 631K
20260430T00Z_MSC_GDPS_GeopotentialHeight_IsbL-0200_LatLon0.15_PT153H.grib2 2026-04-30 04:36 637K
20260430T00Z_MSC_GDPS_GeopotentialHeight_IsbL-0225_LatLon0.15_PT153H.grib2 2026-04-30 04:36 639K
20260430T00Z_MSC_GDPS_GeopotentialHeight_IsbL-0250_LatLon0.15_PT153H.grib2 2026-04-30 04:36 641K
20260430T00Z_MSC_GDPS_GeopotentialHeight_IsbL-0275_LatLon0.15_PT153H.grib2 2026-04-30 04:36 639K
20260430T00Z_MSC_GDPS_GeopotentialHeight_IsbL-0300_LatLon0.15_PT153H.grib2 2026-04-30 04:36 639K
20260430T00Z_MSC_GDPS_GeopotentialHeight_IsbL-0350_LatLon0.15_PT153H.grib2 2026-04-30 04:36 628K
20260430T00Z_MSC_GDPS_GeopotentialHeight_IsbL-0400_LatLon0.15_PT153H.grib2 2026-04-30 04:36 619K
20260430T00Z_MSC_GDPS_GeopotentialHeight_IsbL-0450_LatLon0.15_PT153H.grib2 2026-04-30 04:36 542K
20260430T00Z_MSC_GDPS_GeopotentialHeight_IsbL-0500_LatLon0.15_PT153H.grib2 2026-04-30 04:36 531K
20260430T00Z_MSC_GDPS_GeopotentialHeight_IsbL-0550_LatLon0.15_PT153H.grib2 2026-04-30 04:36 527K
20260430T00Z_MSC_GDPS_GeopotentialHeight_IsbL-0600_LatLon0.15_PT153H.grib2 2026-04-30 04:36 691K
20260430T00Z_MSC_GDPS_GeopotentialHeight_IsbL-0650_LatLon0.15_PT153H.grib2 2026-04-30 04:36 690K
20260430T00Z_MSC_GDPS_GeopotentialHeight_IsbL-0700_LatLon0.15_PT153H.grib2 2026-04-30 04:36 689K
20260430T00Z_MSC_GDPS_GeopotentialHeight_IsbL-0750_LatLon0.15_PT153H.grib2 2026-04-30 04:36 694K
20260430T00Z_MSC_GDPS_GeopotentialHeight_IsbL-0800_LatLon0.15_PT153H.grib2 2026-04-30 04:36 709K
20260430T00Z_MSC_GDPS_GeopotentialHeight_IsbL-0850_LatLon0.15_PT153H.grib2 2026-04-30 04:36 719K
20260430T00Z_MSC_GDPS_GeopotentialHeight_IsbL-0875_LatLon0.15_PT153H.grib2 2026-04-30 04:36 727K
20260430T00Z_MSC_GDPS_GeopotentialHeight_IsbL-0900_LatLon0.15_PT153H.grib2 2026-04-30 04:36 733K
20260430T00Z_MSC_GDPS_GeopotentialHeight_IsbL-0925_LatLon0.15_PT153H.grib2 2026-04-30 04:36 739K
20260430T00Z_MSC_GDPS_GeopotentialHeight_IsbL-0950_LatLon0.15_PT153H.grib2 2026-04-30 04:36 747K
20260430T00Z_MSC_GDPS_GeopotentialHeight_IsbL-0970_LatLon0.15_PT153H.grib2 2026-04-30 04:36 757K
20260430T00Z_MSC_GDPS_GeopotentialHeight_IsbL-0985_LatLon0.15_PT153H.grib2 2026-04-30 04:36 772K
20260430T00Z_MSC_GDPS_GeopotentialHeight_IsbL-1000_LatLon0.15_PT153H.grib2 2026-04-30 04:36 791K
20260430T00Z_MSC_GDPS_GeopotentialHeight_IsbL-1015_LatLon0.15_PT153H.grib2 2026-04-30 04:36 814K
20260430T00Z_MSC_GDPS_Humidex_Sfc_LatLon0.15_PT153H.grib2 2026-04-30 04:36 5.3M
20260430T00Z_MSC_GDPS_IcePellets-Accum3h_Sfc_LatLon0.15_PT153H.grib2 2026-04-30 04:36 18K
20260430T00Z_MSC_GDPS_IcePellets-Accum_Sfc_LatLon0.15_PT153H.grib2 2026-04-30 04:36 113K
20260430T00Z_MSC_GDPS_KIndex_Sfc_LatLon0.15_PT153H.grib2 2026-04-30 04:36 6.4M
20260430T00Z_MSC_GDPS_LatentHeatNetFlux_Sfc_LatLon0.15_PT153H.grib2 2026-04-30 04:36 566K
20260430T00Z_MSC_GDPS_LiftedIndex-MU-VT_IsbL-0500_LatLon0.15_PT153H.grib2 2026-04-30 04:36 5.4M
20260430T00Z_MSC_GDPS_NetLongwaveRadiationFlux-Accum_Sfc_LatLon0.15_PT153H.grib2 2026-04-30 04:36 1.1M
20260430T00Z_MSC_GDPS_NetShortwaveRadiationFlux-Accum_Sfc_LatLon0.15_PT153H.grib2 2026-04-30 04:36 1.0M
20260430T00Z_MSC_GDPS_O3MixingRatio_Sfc_LatLon0.15_PT153H.grib2 2026-04-30 04:51 1.9M
20260430T00Z_MSC_GDPS_O3_EAtm_LatLon0.15_PT153H.grib2 2026-04-30 04:51 2.4M
20260430T00Z_MSC_GDPS_PlanetaryBoundaryLayerHeight_Sfc_LatLon0.15_PT153H.grib2 2026-04-30 04:36 2.5M
20260430T00Z_MSC_GDPS_Precip-Accum3h_Sfc_LatLon0.15_PT153H.grib2 2026-04-30 04:36 3.5M
20260430T00Z_MSC_GDPS_Precip-Accum_Sfc_LatLon0.15_PT153H.grib2 2026-04-30 04:36 5.3M
20260430T00Z_MSC_GDPS_PrecipRate_Sfc_LatLon0.15_PT153H.grib2 2026-04-30 04:36 2.9M
20260430T00Z_MSC_GDPS_PrecipType-Instant_Sfc_LatLon0.15_PT153H.grib2 2026-04-30 04:36 1.6M
20260430T00Z_MSC_GDPS_Pressure_MSL_LatLon0.15_PT153H.grib2 2026-04-30 04:36 822K
20260430T00Z_MSC_GDPS_Pressure_PVU-1.5_LatLon0.15_PT153H.grib2 2026-04-30 04:36 5.8M
20260430T00Z_MSC_GDPS_Pressure_PVU-1_LatLon0.15_PT153H.grib2 2026-04-30 04:36 6.0M
20260430T00Z_MSC_GDPS_Pressure_PVU-2_LatLon0.15_PT153H.grib2 2026-04-30 04:36 5.6M
20260430T00Z_MSC_GDPS_Pressure_Sfc_LatLon0.15_PT153H.grib2 2026-04-30 04:36 1.1M
20260430T00Z_MSC_GDPS_RadiativeTemp_Sfc_LatLon0.15_PT153H.grib2 2026-04-30 04:36 503K
20260430T00Z_MSC_GDPS_Rain-Accum3h_Sfc_LatLon0.15_PT153H.grib2 2026-04-30 04:36 1.9M
20260430T00Z_MSC_GDPS_Rain-Accum_Sfc_LatLon0.15_PT153H.grib2 2026-04-30 04:36 4.1M
20260430T00Z_MSC_GDPS_RelativeHumidity_AGL-2m_LatLon0.15_PT153H.grib2 2026-04-30 04:36 1.1M
20260430T00Z_MSC_GDPS_RelativeHumidity_IsbL-0010_LatLon0.15_PT153H.grib2 2026-04-30 04:36 193K
20260430T00Z_MSC_GDPS_RelativeHumidity_IsbL-0020_LatLon0.15_PT153H.grib2 2026-04-30 04:36 159K
20260430T00Z_MSC_GDPS_RelativeHumidity_IsbL-0030_LatLon0.15_PT153H.grib2 2026-04-30 04:36 261K
20260430T00Z_MSC_GDPS_RelativeHumidity_IsbL-0050_LatLon0.15_PT153H.grib2 2026-04-30 04:36 335K
20260430T00Z_MSC_GDPS_RelativeHumidity_IsbL-0100_LatLon0.15_PT153H.grib2 2026-04-30 04:36 495K
20260430T00Z_MSC_GDPS_RelativeHumidity_IsbL-0150_LatLon0.15_PT153H.grib2 2026-04-30 04:36 662K
20260430T00Z_MSC_GDPS_RelativeHumidity_IsbL-0175_LatLon0.15_PT153H.grib2 2026-04-30 04:36 795K
20260430T00Z_MSC_GDPS_RelativeHumidity_IsbL-0200_LatLon0.15_PT153H.grib2 2026-04-30 04:36 710K
20260430T00Z_MSC_GDPS_RelativeHumidity_IsbL-0225_LatLon0.15_PT153H.grib2 2026-04-30 04:36 787K
20260430T00Z_MSC_GDPS_RelativeHumidity_IsbL-0250_LatLon0.15_PT153H.grib2 2026-04-30 04:36 858K
20260430T00Z_MSC_GDPS_RelativeHumidity_IsbL-0275_LatLon0.15_PT153H.grib2 2026-04-30 04:36 879K
20260430T00Z_MSC_GDPS_RelativeHumidity_IsbL-0300_LatLon0.15_PT153H.grib2 2026-04-30 04:36 922K
20260430T00Z_MSC_GDPS_RelativeHumidity_IsbL-0350_LatLon0.15_PT153H.grib2 2026-04-30 04:36 945K
20260430T00Z_MSC_GDPS_RelativeHumidity_IsbL-0400_LatLon0.15_PT153H.grib2 2026-04-30 04:36 968K
20260430T00Z_MSC_GDPS_RelativeHumidity_IsbL-0450_LatLon0.15_PT153H.grib2 2026-04-30 04:36 1.0M
20260430T00Z_MSC_GDPS_RelativeHumidity_IsbL-0500_LatLon0.15_PT153H.grib2 2026-04-30 04:36 1.0M
20260430T00Z_MSC_GDPS_RelativeHumidity_IsbL-0550_LatLon0.15_PT153H.grib2 2026-04-30 04:36 1.1M
20260430T00Z_MSC_GDPS_RelativeHumidity_IsbL-0600_LatLon0.15_PT153H.grib2 2026-04-30 04:36 1.0M
20260430T00Z_MSC_GDPS_RelativeHumidity_IsbL-0650_LatLon0.15_PT153H.grib2 2026-04-30 04:36 1.1M
20260430T00Z_MSC_GDPS_RelativeHumidity_IsbL-0700_LatLon0.15_PT153H.grib2 2026-04-30 04:36 1.1M
20260430T00Z_MSC_GDPS_RelativeHumidity_IsbL-0750_LatLon0.15_PT153H.grib2 2026-04-30 04:36 1.1M
20260430T00Z_MSC_GDPS_RelativeHumidity_IsbL-0800_LatLon0.15_PT153H.grib2 2026-04-30 04:36 1.2M
20260430T00Z_MSC_GDPS_RelativeHumidity_IsbL-0850_LatLon0.15_PT153H.grib2 2026-04-30 04:36 1.3M
20260430T00Z_MSC_GDPS_RelativeHumidity_IsbL-0875_LatLon0.15_PT153H.grib2 2026-04-30 04:36 1.3M
20260430T00Z_MSC_GDPS_RelativeHumidity_IsbL-0900_LatLon0.15_PT153H.grib2 2026-04-30 04:36 1.2M
20260430T00Z_MSC_GDPS_RelativeHumidity_IsbL-0925_LatLon0.15_PT153H.grib2 2026-04-30 04:36 1.2M
20260430T00Z_MSC_GDPS_RelativeHumidity_IsbL-0950_LatLon0.15_PT153H.grib2 2026-04-30 04:36 1.2M
20260430T00Z_MSC_GDPS_RelativeHumidity_IsbL-0970_LatLon0.15_PT153H.grib2 2026-04-30 04:36 1.2M
20260430T00Z_MSC_GDPS_RelativeHumidity_IsbL-0985_LatLon0.15_PT153H.grib2 2026-04-30 04:36 1.1M
20260430T00Z_MSC_GDPS_RelativeHumidity_IsbL-1000_LatLon0.15_PT153H.grib2 2026-04-30 04:36 1.1M
20260430T00Z_MSC_GDPS_RelativeHumidity_IsbL-1015_LatLon0.15_PT153H.grib2 2026-04-30 04:36 1.0M
20260430T00Z_MSC_GDPS_Runoff-Accum_Sfc_LatLon0.15_PT153H.grib2 2026-04-30 04:36 114K
20260430T00Z_MSC_GDPS_SensibleHeatNetFlux_Sfc_LatLon0.15_PT153H.grib2 2026-04-30 04:36 506K
20260430T00Z_MSC_GDPS_ShowalterIndex_IsbL-0500_LatLon0.15_PT153H.grib2 2026-04-30 04:36 6.2M
20260430T00Z_MSC_GDPS_Snow-Accum3h_Sfc_LatLon0.15_PT153H.grib2 2026-04-30 04:36 940K
20260430T00Z_MSC_GDPS_Snow-Accum_Sfc_LatLon0.15_PT153H.grib2 2026-04-30 04:36 2.0M
20260430T00Z_MSC_GDPS_SnowDepth_Sfc_LatLon0.15_PT153H.grib2 2026-04-30 04:36 1.7M
20260430T00Z_MSC_GDPS_SoilTemp_DBS-0to10cm_LatLon0.15_PT153H.grib2 2026-04-30 04:36 513K
20260430T00Z_MSC_GDPS_SoilTemp_Sfc_LatLon0.15_PT153H.grib2 2026-04-30 04:36 592K
20260430T00Z_MSC_GDPS_SoilVolumetricWaterContent_DBS-0to10cm_LatLon0.15_PT153H.grib2 2026-04-30 04:36 591K
20260430T00Z_MSC_GDPS_SoilVolumetricWaterContent_DBS-0to1cm_LatLon0.15_PT153H.grib2 2026-04-30 04:36 650K
20260430T00Z_MSC_GDPS_SpecificHumidity_AGL-120m_LatLon0.15_PT153H.grib2 2026-04-30 04:36 1.1M
20260430T00Z_MSC_GDPS_SpecificHumidity_AGL-2m_LatLon0.15_PT153H.grib2 2026-04-30 04:36 1.2M
20260430T00Z_MSC_GDPS_SpecificHumidity_AGL-40m_LatLon0.15_PT153H.grib2 2026-04-30 04:36 1.1M
20260430T00Z_MSC_GDPS_SpecificHumidity_AGL-80m_LatLon0.15_PT153H.grib2 2026-04-30 04:36 1.1M
20260430T00Z_MSC_GDPS_SpecificHumidity_IsbL-0001_LatLon0.15_PT153H.grib2 2026-04-30 04:36 1.2M
20260430T00Z_MSC_GDPS_SpecificHumidity_IsbL-0005_LatLon0.15_PT153H.grib2 2026-04-30 04:36 1.1M
20260430T00Z_MSC_GDPS_SpecificHumidity_IsbL-0010_LatLon0.15_PT153H.grib2 2026-04-30 04:36 1.2M
20260430T00Z_MSC_GDPS_SpecificHumidity_IsbL-0020_LatLon0.15_PT153H.grib2 2026-04-30 04:36 1.2M
20260430T00Z_MSC_GDPS_SpecificHumidity_IsbL-0030_LatLon0.15_PT153H.grib2 2026-04-30 04:36 1.5M
20260430T00Z_MSC_GDPS_SpecificHumidity_IsbL-0050_LatLon0.15_PT153H.grib2 2026-04-30 04:36 1.5M
20260430T00Z_MSC_GDPS_SpecificHumidity_IsbL-0100_LatLon0.15_PT153H.grib2 2026-04-30 04:36 1.3M
20260430T00Z_MSC_GDPS_SpecificHumidity_IsbL-0150_LatLon0.15_PT153H.grib2 2026-04-30 04:36 1.3M
20260430T00Z_MSC_GDPS_SpecificHumidity_IsbL-0175_LatLon0.15_PT153H.grib2 2026-04-30 04:36 1.2M
20260430T00Z_MSC_GDPS_SpecificHumidity_IsbL-0200_LatLon0.15_PT153H.grib2 2026-04-30 04:36 1.3M
20260430T00Z_MSC_GDPS_SpecificHumidity_IsbL-0225_LatLon0.15_PT153H.grib2 2026-04-30 04:36 1.3M
20260430T00Z_MSC_GDPS_SpecificHumidity_IsbL-0250_LatLon0.15_PT153H.grib2 2026-04-30 04:36 1.4M
20260430T00Z_MSC_GDPS_SpecificHumidity_IsbL-0275_LatLon0.15_PT153H.grib2 2026-04-30 04:36 1.3M
20260430T00Z_MSC_GDPS_SpecificHumidity_IsbL-0300_LatLon0.15_PT153H.grib2 2026-04-30 04:36 1.2M
20260430T00Z_MSC_GDPS_SpecificHumidity_IsbL-0350_LatLon0.15_PT153H.grib2 2026-04-30 04:36 1.2M
20260430T00Z_MSC_GDPS_SpecificHumidity_IsbL-0400_LatLon0.15_PT153H.grib2 2026-04-30 04:36 1.5M
20260430T00Z_MSC_GDPS_SpecificHumidity_IsbL-0450_LatLon0.15_PT153H.grib2 2026-04-30 04:36 1.6M
20260430T00Z_MSC_GDPS_SpecificHumidity_IsbL-0500_LatLon0.15_PT153H.grib2 2026-04-30 04:36 1.4M
20260430T00Z_MSC_GDPS_SpecificHumidity_IsbL-0550_LatLon0.15_PT153H.grib2 2026-04-30 04:36 1.6M
20260430T00Z_MSC_GDPS_SpecificHumidity_IsbL-0600_LatLon0.15_PT153H.grib2 2026-04-30 04:36 1.7M
20260430T00Z_MSC_GDPS_SpecificHumidity_IsbL-0650_LatLon0.15_PT153H.grib2 2026-04-30 04:36 1.5M
20260430T00Z_MSC_GDPS_SpecificHumidity_IsbL-0700_LatLon0.15_PT153H.grib2 2026-04-30 04:36 1.6M
20260430T00Z_MSC_GDPS_SpecificHumidity_IsbL-0750_LatLon0.15_PT153H.grib2 2026-04-30 04:36 1.7M
20260430T00Z_MSC_GDPS_SpecificHumidity_IsbL-0800_LatLon0.15_PT153H.grib2 2026-04-30 04:36 1.8M
20260430T00Z_MSC_GDPS_SpecificHumidity_IsbL-0850_LatLon0.15_PT153H.grib2 2026-04-30 04:36 1.9M
20260430T00Z_MSC_GDPS_SpecificHumidity_IsbL-0875_LatLon0.15_PT153H.grib2 2026-04-30 04:36 1.9M
20260430T00Z_MSC_GDPS_SpecificHumidity_IsbL-0900_LatLon0.15_PT153H.grib2 2026-04-30 04:36 1.9M
20260430T00Z_MSC_GDPS_SpecificHumidity_IsbL-0925_LatLon0.15_PT153H.grib2 2026-04-30 04:36 1.6M
20260430T00Z_MSC_GDPS_SpecificHumidity_IsbL-0950_LatLon0.15_PT153H.grib2 2026-04-30 04:36 1.6M
20260430T00Z_MSC_GDPS_SpecificHumidity_IsbL-0970_LatLon0.15_PT153H.grib2 2026-04-30 04:36 1.5M
20260430T00Z_MSC_GDPS_SpecificHumidity_IsbL-0985_LatLon0.15_PT153H.grib2 2026-04-30 04:36 1.5M
20260430T00Z_MSC_GDPS_SpecificHumidity_IsbL-1000_LatLon0.15_PT153H.grib2 2026-04-30 04:36 1.5M
20260430T00Z_MSC_GDPS_SpecificHumidity_IsbL-1015_LatLon0.15_PT153H.grib2 2026-04-30 04:36 1.5M
20260430T00Z_MSC_GDPS_SpecificHumidity_Sfc_LatLon0.15_PT153H.grib2 2026-04-30 04:36 684K
20260430T00Z_MSC_GDPS_Thickness_IsbL-0850to0700_LatLon0.15_PT153H.grib2 2026-04-30 04:36 473K
20260430T00Z_MSC_GDPS_Thickness_IsbL-1000to0500_LatLon0.15_PT153H.grib2 2026-04-30 04:36 376K
20260430T00Z_MSC_GDPS_Thickness_IsbL-1000to0850_LatLon0.15_PT153H.grib2 2026-04-30 04:36 494K
20260430T00Z_MSC_GDPS_TotalCloudCover_Sfc_LatLon0.15_PT153H.grib2 2026-04-30 04:36 820K
20260430T00Z_MSC_GDPS_TotalTotalsIndex_Sfc_LatLon0.15_PT153H.grib2 2026-04-30 04:36 6.1M
20260430T00Z_MSC_GDPS_UVIndex-ClearSky_Sfc_LatLon0.15_PT153H.grib2 2026-04-30 04:51 1.1M
20260430T00Z_MSC_GDPS_UVIndex_Sfc_LatLon0.15_PT153H.grib2 2026-04-30 04:51 1.5M
20260430T00Z_MSC_GDPS_UpwardLongwaveRadiationFlux_NTAtm_LatLon0.15_PT153H.grib2 2026-04-30 04:36 830K
20260430T00Z_MSC_GDPS_VerticalVelocity_IsbL-0500_LatLon0.15_PT153H.grib2 2026-04-30 04:36 1.0M
20260430T00Z_MSC_GDPS_VerticalVelocity_IsbL-0700_LatLon0.15_PT153H.grib2 2026-04-30 04:36 1.2M
20260430T00Z_MSC_GDPS_VerticalVelocity_IsbL-0850_LatLon0.15_PT153H.grib2 2026-04-30 04:36 1.3M
20260430T00Z_MSC_GDPS_WindChill_Sfc_LatLon0.15_PT153H.grib2 2026-04-30 04:36 5.3M
20260430T00Z_MSC_GDPS_WindDir_AGL-10m_LatLon0.15_PT153H.grib2 2026-04-30 04:36 1.3M
20260430T00Z_MSC_GDPS_WindDir_AGL-120m_LatLon0.15_PT153H.grib2 2026-04-30 04:36 1.3M
20260430T00Z_MSC_GDPS_WindDir_AGL-40m_LatLon0.15_PT153H.grib2 2026-04-30 04:36 1.4M
20260430T00Z_MSC_GDPS_WindDir_AGL-80m_LatLon0.15_PT153H.grib2 2026-04-30 04:36 1.3M
20260430T00Z_MSC_GDPS_WindDir_IsbL-0001_LatLon0.15_PT153H.grib2 2026-04-30 04:36 658K
20260430T00Z_MSC_GDPS_WindDir_IsbL-0005_LatLon0.15_PT153H.grib2 2026-04-30 04:36 814K
20260430T00Z_MSC_GDPS_WindDir_IsbL-0010_LatLon0.15_PT153H.grib2 2026-04-30 04:36 843K
20260430T00Z_MSC_GDPS_WindDir_IsbL-0020_LatLon0.15_PT153H.grib2 2026-04-30 04:36 944K
20260430T00Z_MSC_GDPS_WindDir_IsbL-0030_LatLon0.15_PT153H.grib2 2026-04-30 04:36 930K
20260430T00Z_MSC_GDPS_WindDir_IsbL-0050_LatLon0.15_PT153H.grib2 2026-04-30 04:36 949K
20260430T00Z_MSC_GDPS_WindDir_IsbL-0100_LatLon0.15_PT153H.grib2 2026-04-30 04:36 1.0M
20260430T00Z_MSC_GDPS_WindDir_IsbL-0150_LatLon0.15_PT153H.grib2 2026-04-30 04:36 1.0M
20260430T00Z_MSC_GDPS_WindDir_IsbL-0175_LatLon0.15_PT153H.grib2 2026-04-30 04:36 1.0M
20260430T00Z_MSC_GDPS_WindDir_IsbL-0200_LatLon0.15_PT153H.grib2 2026-04-30 04:36 1.1M
20260430T00Z_MSC_GDPS_WindDir_IsbL-0225_LatLon0.15_PT153H.grib2 2026-04-30 04:36 1.1M
20260430T00Z_MSC_GDPS_WindDir_IsbL-0250_LatLon0.15_PT153H.grib2 2026-04-30 04:36 1.1M
20260430T00Z_MSC_GDPS_WindDir_IsbL-0275_LatLon0.15_PT153H.grib2 2026-04-30 04:36 1.2M
20260430T00Z_MSC_GDPS_WindDir_IsbL-0300_LatLon0.15_PT153H.grib2 2026-04-30 04:36 1.2M
20260430T00Z_MSC_GDPS_WindDir_IsbL-0350_LatLon0.15_PT153H.grib2 2026-04-30 04:36 1.2M
20260430T00Z_MSC_GDPS_WindDir_IsbL-0400_LatLon0.15_PT153H.grib2 2026-04-30 04:36 1.3M
20260430T00Z_MSC_GDPS_WindDir_IsbL-0450_LatLon0.15_PT153H.grib2 2026-04-30 04:36 1.3M
20260430T00Z_MSC_GDPS_WindDir_IsbL-0500_LatLon0.15_PT153H.grib2 2026-04-30 04:36 1.4M
20260430T00Z_MSC_GDPS_WindDir_IsbL-0550_LatLon0.15_PT153H.grib2 2026-04-30 04:36 1.4M
20260430T00Z_MSC_GDPS_WindDir_IsbL-0600_LatLon0.15_PT153H.grib2 2026-04-30 04:36 1.4M
20260430T00Z_MSC_GDPS_WindDir_IsbL-0650_LatLon0.15_PT153H.grib2 2026-04-30 04:36 1.5M
20260430T00Z_MSC_GDPS_WindDir_IsbL-0700_LatLon0.15_PT153H.grib2 2026-04-30 04:36 1.6M
20260430T00Z_MSC_GDPS_WindDir_IsbL-0750_LatLon0.15_PT153H.grib2 2026-04-30 04:36 1.7M
20260430T00Z_MSC_GDPS_WindDir_IsbL-0800_LatLon0.15_PT153H.grib2 2026-04-30 04:36 1.8M
20260430T00Z_MSC_GDPS_WindDir_IsbL-0850_LatLon0.15_PT153H.grib2 2026-04-30 04:36 1.9M
20260430T00Z_MSC_GDPS_WindDir_IsbL-0875_LatLon0.15_PT153H.grib2 2026-04-30 04:36 1.9M
20260430T00Z_MSC_GDPS_WindDir_IsbL-0900_LatLon0.15_PT153H.grib2 2026-04-30 04:36 1.9M
20260430T00Z_MSC_GDPS_WindDir_IsbL-0925_LatLon0.15_PT153H.grib2 2026-04-30 04:36 1.9M
20260430T00Z_MSC_GDPS_WindDir_IsbL-0950_LatLon0.15_PT153H.grib2 2026-04-30 04:36 1.9M
20260430T00Z_MSC_GDPS_WindDir_IsbL-0970_LatLon0.15_PT153H.grib2 2026-04-30 04:36 1.9M
20260430T00Z_MSC_GDPS_WindDir_IsbL-0985_LatLon0.15_PT153H.grib2 2026-04-30 04:36 2.0M
20260430T00Z_MSC_GDPS_WindDir_IsbL-1000_LatLon0.15_PT153H.grib2 2026-04-30 04:36 2.0M
20260430T00Z_MSC_GDPS_WindDir_IsbL-1015_LatLon0.15_PT153H.grib2 2026-04-30 04:36 2.0M
20260430T00Z_MSC_GDPS_WindGust-Max_AGL-10m_LatLon0.15_PT153H.grib2 2026-04-30 04:36 2.2M
20260430T00Z_MSC_GDPS_WindGust-Min_AGL-10m_LatLon0.15_PT153H.grib2 2026-04-30 04:36 2.2M
20260430T00Z_MSC_GDPS_WindGust_AGL-10m_LatLon0.15_PT153H.grib2 2026-04-30 04:36 2.1M
20260430T00Z_MSC_GDPS_WindSpeed_AGL-10m_LatLon0.15_PT153H.grib2 2026-04-30 04:36 1.1M
20260430T00Z_MSC_GDPS_WindSpeed_AGL-120m_LatLon0.15_PT153H.grib2 2026-04-30 04:36 1.2M
20260430T00Z_MSC_GDPS_WindSpeed_AGL-40m_LatLon0.15_PT153H.grib2 2026-04-30 04:36 1.2M
20260430T00Z_MSC_GDPS_WindSpeed_AGL-80m_LatLon0.15_PT153H.grib2 2026-04-30 04:36 1.2M
20260430T00Z_MSC_GDPS_WindSpeed_IsbL-0001_LatLon0.15_PT153H.grib2 2026-04-30 04:36 645K
20260430T00Z_MSC_GDPS_WindSpeed_IsbL-0005_LatLon0.15_PT153H.grib2 2026-04-30 04:36 692K
20260430T00Z_MSC_GDPS_WindSpeed_IsbL-0010_LatLon0.15_PT153H.grib2 2026-04-30 04:36 622K
20260430T00Z_MSC_GDPS_WindSpeed_IsbL-0020_LatLon0.15_PT153H.grib2 2026-04-30 04:36 659K
20260430T00Z_MSC_GDPS_WindSpeed_IsbL-0030_LatLon0.15_PT153H.grib2 2026-04-30 04:36 852K
20260430T00Z_MSC_GDPS_WindSpeed_IsbL-0050_LatLon0.15_PT153H.grib2 2026-04-30 04:36 893K
20260430T00Z_MSC_GDPS_WindSpeed_IsbL-0100_LatLon0.15_PT153H.grib2 2026-04-30 04:36 1.1M
20260430T00Z_MSC_GDPS_WindSpeed_IsbL-0150_LatLon0.15_PT153H.grib2 2026-04-30 04:36 940K
20260430T00Z_MSC_GDPS_WindSpeed_IsbL-0175_LatLon0.15_PT153H.grib2 2026-04-30 04:36 1.0M
20260430T00Z_MSC_GDPS_WindSpeed_IsbL-0200_LatLon0.15_PT153H.grib2 2026-04-30 04:36 1.1M
20260430T00Z_MSC_GDPS_WindSpeed_IsbL-0225_LatLon0.15_PT153H.grib2 2026-04-30 04:36 1.1M
20260430T00Z_MSC_GDPS_WindSpeed_IsbL-0250_LatLon0.15_PT153H.grib2 2026-04-30 04:36 1.1M
20260430T00Z_MSC_GDPS_WindSpeed_IsbL-0275_LatLon0.15_PT153H.grib2 2026-04-30 04:36 1.1M
20260430T00Z_MSC_GDPS_WindSpeed_IsbL-0300_LatLon0.15_PT153H.grib2 2026-04-30 04:36 1.1M
20260430T00Z_MSC_GDPS_WindSpeed_IsbL-0350_LatLon0.15_PT153H.grib2 2026-04-30 04:36 1.1M
20260430T00Z_MSC_GDPS_WindSpeed_IsbL-0400_LatLon0.15_PT153H.grib2 2026-04-30 04:36 1.1M
20260430T00Z_MSC_GDPS_WindSpeed_IsbL-0450_LatLon0.15_PT153H.grib2 2026-04-30 04:36 1.1M
20260430T00Z_MSC_GDPS_WindSpeed_IsbL-0500_LatLon0.15_PT153H.grib2 2026-04-30 04:36 1.1M
20260430T00Z_MSC_GDPS_WindSpeed_IsbL-0550_LatLon0.15_PT153H.grib2 2026-04-30 04:36 1.1M
20260430T00Z_MSC_GDPS_WindSpeed_IsbL-0600_LatLon0.15_PT153H.grib2 2026-04-30 04:36 1.1M
20260430T00Z_MSC_GDPS_WindSpeed_IsbL-0650_LatLon0.15_PT153H.grib2 2026-04-30 04:36 1.2M
20260430T00Z_MSC_GDPS_WindSpeed_IsbL-0700_LatLon0.15_PT153H.grib2 2026-04-30 04:36 1.5M
20260430T00Z_MSC_GDPS_WindSpeed_IsbL-0750_LatLon0.15_PT153H.grib2 2026-04-30 04:36 1.6M
20260430T00Z_MSC_GDPS_WindSpeed_IsbL-0800_LatLon0.15_PT153H.grib2 2026-04-30 04:36 1.6M
20260430T00Z_MSC_GDPS_WindSpeed_IsbL-0850_LatLon0.15_PT153H.grib2 2026-04-30 04:36 1.7M
20260430T00Z_MSC_GDPS_WindSpeed_IsbL-0875_LatLon0.15_PT153H.grib2 2026-04-30 04:36 1.8M
20260430T00Z_MSC_GDPS_WindSpeed_IsbL-0900_LatLon0.15_PT153H.grib2 2026-04-30 04:36 1.8M
20260430T00Z_MSC_GDPS_WindSpeed_IsbL-0925_LatLon0.15_PT153H.grib2 2026-04-30 04:36 1.8M
20260430T00Z_MSC_GDPS_WindSpeed_IsbL-0950_LatLon0.15_PT153H.grib2 2026-04-30 04:36 1.9M
20260430T00Z_MSC_GDPS_WindSpeed_IsbL-0970_LatLon0.15_PT153H.grib2 2026-04-30 04:36 1.9M
20260430T00Z_MSC_GDPS_WindSpeed_IsbL-0985_LatLon0.15_PT153H.grib2 2026-04-30 04:36 1.8M
20260430T00Z_MSC_GDPS_WindSpeed_IsbL-1000_LatLon0.15_PT153H.grib2 2026-04-30 04:36 1.8M
20260430T00Z_MSC_GDPS_WindSpeed_IsbL-1015_LatLon0.15_PT153H.grib2 2026-04-30 04:36 1.8M
20260430T00Z_MSC_GDPS_WindU_AGL-10m_LatLon0.15_PT153H.grib2 2026-04-30 04:36 1.3M
20260430T00Z_MSC_GDPS_WindU_AGL-120m_LatLon0.15_PT153H.grib2 2026-04-30 04:36 962K
20260430T00Z_MSC_GDPS_WindU_AGL-40m_LatLon0.15_PT153H.grib2 2026-04-30 04:36 959K
20260430T00Z_MSC_GDPS_WindU_AGL-80m_LatLon0.15_PT153H.grib2 2026-04-30 04:36 962K
20260430T00Z_MSC_GDPS_WindU_IsbL-0001_LatLon0.15_PT153H.grib2 2026-04-30 04:36 501K
20260430T00Z_MSC_GDPS_WindU_IsbL-0005_LatLon0.15_PT153H.grib2 2026-04-30 04:36 687K
20260430T00Z_MSC_GDPS_WindU_IsbL-0010_LatLon0.15_PT153H.grib2 2026-04-30 04:36 697K
20260430T00Z_MSC_GDPS_WindU_IsbL-0020_LatLon0.15_PT153H.grib2 2026-04-30 04:36 725K
20260430T00Z_MSC_GDPS_WindU_IsbL-0030_LatLon0.15_PT153H.grib2 2026-04-30 04:36 732K
20260430T00Z_MSC_GDPS_WindU_IsbL-0050_LatLon0.15_PT153H.grib2 2026-04-30 04:36 760K
20260430T00Z_MSC_GDPS_WindU_IsbL-0100_LatLon0.15_PT153H.grib2 2026-04-30 04:36 920K
20260430T00Z_MSC_GDPS_WindU_IsbL-0150_LatLon0.15_PT153H.grib2 2026-04-30 04:36 1.0M
20260430T00Z_MSC_GDPS_WindU_IsbL-0175_LatLon0.15_PT153H.grib2 2026-04-30 04:36 1.0M
20260430T00Z_MSC_GDPS_WindU_IsbL-0200_LatLon0.15_PT153H.grib2 2026-04-30 04:36 842K
20260430T00Z_MSC_GDPS_WindU_IsbL-0225_LatLon0.15_PT153H.grib2 2026-04-30 04:36 851K
20260430T00Z_MSC_GDPS_WindU_IsbL-0250_LatLon0.15_PT153H.grib2 2026-04-30 04:36 851K
20260430T00Z_MSC_GDPS_WindU_IsbL-0275_LatLon0.15_PT153H.grib2 2026-04-30 04:36 877K
20260430T00Z_MSC_GDPS_WindU_IsbL-0300_LatLon0.15_PT153H.grib2 2026-04-30 04:36 869K
20260430T00Z_MSC_GDPS_WindU_IsbL-0350_LatLon0.15_PT153H.grib2 2026-04-30 04:36 884K
20260430T00Z_MSC_GDPS_WindU_IsbL-0400_LatLon0.15_PT153H.grib2 2026-04-30 04:36 887K
20260430T00Z_MSC_GDPS_WindU_IsbL-0450_LatLon0.15_PT153H.grib2 2026-04-30 04:36 888K
20260430T00Z_MSC_GDPS_WindU_IsbL-0500_LatLon0.15_PT153H.grib2 2026-04-30 04:36 1.1M
20260430T00Z_MSC_GDPS_WindU_IsbL-0550_LatLon0.15_PT153H.grib2 2026-04-30 04:36 1.1M
20260430T00Z_MSC_GDPS_WindU_IsbL-0600_LatLon0.15_PT153H.grib2 2026-04-30 04:36 1.1M
20260430T00Z_MSC_GDPS_WindU_IsbL-0650_LatLon0.15_PT153H.grib2 2026-04-30 04:36 1.2M
20260430T00Z_MSC_GDPS_WindU_IsbL-0700_LatLon0.15_PT153H.grib2 2026-04-30 04:36 1.2M
20260430T00Z_MSC_GDPS_WindU_IsbL-0750_LatLon0.15_PT153H.grib2 2026-04-30 04:36 1.3M
20260430T00Z_MSC_GDPS_WindU_IsbL-0800_LatLon0.15_PT153H.grib2 2026-04-30 04:36 1.4M
20260430T00Z_MSC_GDPS_WindU_IsbL-0850_LatLon0.15_PT153H.grib2 2026-04-30 04:36 1.4M
20260430T00Z_MSC_GDPS_WindU_IsbL-0875_LatLon0.15_PT153H.grib2 2026-04-30 04:36 1.5M
20260430T00Z_MSC_GDPS_WindU_IsbL-0900_LatLon0.15_PT153H.grib2 2026-04-30 04:36 1.5M
20260430T00Z_MSC_GDPS_WindU_IsbL-0925_LatLon0.15_PT153H.grib2 2026-04-30 04:36 1.5M
20260430T00Z_MSC_GDPS_WindU_IsbL-0950_LatLon0.15_PT153H.grib2 2026-04-30 04:36 1.4M
20260430T00Z_MSC_GDPS_WindU_IsbL-0970_LatLon0.15_PT153H.grib2 2026-04-30 04:36 1.4M
20260430T00Z_MSC_GDPS_WindU_IsbL-0985_LatLon0.15_PT153H.grib2 2026-04-30 04:36 1.4M
20260430T00Z_MSC_GDPS_WindU_IsbL-1000_LatLon0.15_PT153H.grib2 2026-04-30 04:36 1.4M
20260430T00Z_MSC_GDPS_WindU_IsbL-1015_LatLon0.15_PT153H.grib2 2026-04-30 04:36 1.3M
20260430T00Z_MSC_GDPS_WindV_AGL-10m_LatLon0.15_PT153H.grib2 2026-04-30 04:36 1.3M
20260430T00Z_MSC_GDPS_WindV_AGL-120m_LatLon0.15_PT153H.grib2 2026-04-30 04:36 962K
20260430T00Z_MSC_GDPS_WindV_AGL-40m_LatLon0.15_PT153H.grib2 2026-04-30 04:36 957K
20260430T00Z_MSC_GDPS_WindV_AGL-80m_LatLon0.15_PT153H.grib2 2026-04-30 04:36 961K
20260430T00Z_MSC_GDPS_WindV_IsbL-0001_LatLon0.15_PT153H.grib2 2026-04-30 04:36 775K
20260430T00Z_MSC_GDPS_WindV_IsbL-0005_LatLon0.15_PT153H.grib2 2026-04-30 04:36 851K
20260430T00Z_MSC_GDPS_WindV_IsbL-0010_LatLon0.15_PT153H.grib2 2026-04-30 04:36 875K
20260430T00Z_MSC_GDPS_WindV_IsbL-0020_LatLon0.15_PT153H.grib2 2026-04-30 04:36 923K
20260430T00Z_MSC_GDPS_WindV_IsbL-0030_LatLon0.15_PT153H.grib2 2026-04-30 04:36 925K
20260430T00Z_MSC_GDPS_WindV_IsbL-0050_LatLon0.15_PT153H.grib2 2026-04-30 04:36 889K
20260430T00Z_MSC_GDPS_WindV_IsbL-0100_LatLon0.15_PT153H.grib2 2026-04-30 04:36 1.1M
20260430T00Z_MSC_GDPS_WindV_IsbL-0150_LatLon0.15_PT153H.grib2 2026-04-30 04:36 1.0M
20260430T00Z_MSC_GDPS_WindV_IsbL-0175_LatLon0.15_PT153H.grib2 2026-04-30 04:36 1.0M
20260430T00Z_MSC_GDPS_WindV_IsbL-0200_LatLon0.15_PT153H.grib2 2026-04-30 04:36 836K
20260430T00Z_MSC_GDPS_WindV_IsbL-0225_LatLon0.15_PT153H.grib2 2026-04-30 04:36 844K
20260430T00Z_MSC_GDPS_WindV_IsbL-0250_LatLon0.15_PT153H.grib2 2026-04-30 04:36 845K
20260430T00Z_MSC_GDPS_WindV_IsbL-0275_LatLon0.15_PT153H.grib2 2026-04-30 04:36 872K
20260430T00Z_MSC_GDPS_WindV_IsbL-0300_LatLon0.15_PT153H.grib2 2026-04-30 04:36 862K
20260430T00Z_MSC_GDPS_WindV_IsbL-0350_LatLon0.15_PT153H.grib2 2026-04-30 04:36 874K
20260430T00Z_MSC_GDPS_WindV_IsbL-0400_LatLon0.15_PT153H.grib2 2026-04-30 04:36 876K
20260430T00Z_MSC_GDPS_WindV_IsbL-0450_LatLon0.15_PT153H.grib2 2026-04-30 04:36 877K
20260430T00Z_MSC_GDPS_WindV_IsbL-0500_LatLon0.15_PT153H.grib2 2026-04-30 04:36 1.1M
20260430T00Z_MSC_GDPS_WindV_IsbL-0550_LatLon0.15_PT153H.grib2 2026-04-30 04:36 1.1M
20260430T00Z_MSC_GDPS_WindV_IsbL-0600_LatLon0.15_PT153H.grib2 2026-04-30 04:36 1.1M
20260430T00Z_MSC_GDPS_WindV_IsbL-0650_LatLon0.15_PT153H.grib2 2026-04-30 04:36 1.2M
20260430T00Z_MSC_GDPS_WindV_IsbL-0700_LatLon0.15_PT153H.grib2 2026-04-30 04:36 1.2M
20260430T00Z_MSC_GDPS_WindV_IsbL-0750_LatLon0.15_PT153H.grib2 2026-04-30 04:36 1.3M
20260430T00Z_MSC_GDPS_WindV_IsbL-0800_LatLon0.15_PT153H.grib2 2026-04-30 04:36 1.3M
20260430T00Z_MSC_GDPS_WindV_IsbL-0850_LatLon0.15_PT153H.grib2 2026-04-30 04:36 1.4M
20260430T00Z_MSC_GDPS_WindV_IsbL-0875_LatLon0.15_PT153H.grib2 2026-04-30 04:36 1.4M
20260430T00Z_MSC_GDPS_WindV_IsbL-0900_LatLon0.15_PT153H.grib2 2026-04-30 04:36 1.5M
20260430T00Z_MSC_GDPS_WindV_IsbL-0925_LatLon0.15_PT153H.grib2 2026-04-30 04:36 1.4M
20260430T00Z_MSC_GDPS_WindV_IsbL-0950_LatLon0.15_PT153H.grib2 2026-04-30 04:36 1.4M
20260430T00Z_MSC_GDPS_WindV_IsbL-0970_LatLon0.15_PT153H.grib2 2026-04-30 04:36 1.4M
20260430T00Z_MSC_GDPS_WindV_IsbL-0985_LatLon0.15_PT153H.grib2 2026-04-30 04:36 1.4M
20260430T00Z_MSC_GDPS_WindV_IsbL-1000_LatLon0.15_PT153H.grib2 2026-04-30 04:36 1.4M
20260430T00Z_MSC_GDPS_WindV_IsbL-1015_LatLon0.15_PT153H.grib2 2026-04-30 04:36 1.3M